Weather History for Akron, OH

Change the Weather History Date:

Wednesday, April 16, 2014

  Actual Average (KCAK) Record (KCAK)
Temperature  
Mean Temperature 32 °F 50 °F  
Max Temperature 44 °F 60 °F 84 °F (2002)
Min Temperature 21 °F 39 °F 16 °F (1904)
Degree Days  
Heating Degree Days 33 16  
Month to date heating degree days 295  
Since 1 July heating degree days 5690  
Cooling Degree Days 0 0  
Month to date cooling degree days 0  
Year to date cooling degree days 0  
Moisture  
Dew Point 18 °F    
Average Humidity 55    
Maximum Humidity 88    
Minimum Humidity 34    
Precipitation  
Precipitation 0.00 in 0.12 in 1.53 in (1998)
Month to date precipitation 1.92  
Year to date precipitation 9.82  
Snow  
Snow 0.00 in 0.10 in - ()
Month to date snowfall 2.2  
Since 1 July snowfall 46.9  
Snow Depth -    
Sea Level Pressure  
Sea Level Pressure 30.40 in    
Wind  
Wind Speed 5 mph (ENE)    
Max Wind Speed 9 mph    
Max Gust Speed -    
Visibility 10 miles    
Events      
T = Trace of Precipitation, MM = Missing Value Source: NWS Daily Summary

Daily Weather History Graph

Daily Weather History Graph

Search for Another Location

Airport:

Trip Planner

Search our weather history database for the weather conditions in past years. The results will help you decide how hot, cold, wet, or windy it might be!

Date:

Astronomy

Apr. 16, 2014 Rise Set
Actual Time 6:45 AM EDT 8:06 PM EDT
Civil Twilight 6:16 AM EDT 8:35 PM EDT
Nautical Twilight 5:42 AM EDT 9:09 PM EDT
Astronomical Twilight 5:06 AM EDT 9:46 PM EDT
Moon 9:49 PM EDT (4/16) 7:31 AM EDT (4/16)
Length of Visible Light 14h 18m
Length of Day
13h 21m
Full, 98% of the Moon is Illuminated
Apr 16
Full
Apr 22
Last Quarter
Apr 29
New
May 6
First Quarter
May 14
Full

Hourly Weather History & Observations

Time (EDT) Temp. Windchill Dew Point Humidity Pressure Visibility Wind Dir Wind Speed Gust Speed Precip Events Conditions
12:54 AM 27.0 °F 20.5 °F 19.9 °F 75% 30.25 in 10.0 mi NW 5.8 mph - N/A   Clear
1:54 AM 27.0 °F 19.5 °F 18.0 °F 69% 30.25 in 10.0 mi North 6.9 mph - N/A   Clear
2:54 AM 26.1 °F 21.9 °F 18.0 °F 71% 30.26 in 10.0 mi NNE 3.5 mph - N/A   Clear
3:54 AM 25.0 °F 20.7 °F 17.1 °F 72% 30.30 in 10.0 mi NNE 3.5 mph - N/A   Clear
4:54 AM 24.1 °F 19.7 °F 18.0 °F 77% 30.34 in 10.0 mi NE 3.5 mph - N/A   Clear
5:54 AM 21.0 °F - 17.1 °F 85% 30.38 in 10.0 mi Calm Calm - N/A   Clear
6:54 AM 23.0 °F - 19.0 °F 85% 30.41 in 10.0 mi Calm Calm - N/A   Clear
7:54 AM 25.0 °F - 21.9 °F 88% 30.44 in 10.0 mi Calm Calm - N/A   Clear
8:54 AM 28.9 °F - 18.0 °F 64% 30.47 in 10.0 mi Calm Calm - N/A   Clear
9:54 AM 30.9 °F - 17.1 °F 57% 30.49 in 10.0 mi North - - N/A   Clear
10:54 AM 33.1 °F 26.9 °F 15.1 °F 48% 30.50 in 10.0 mi NE 6.9 mph - N/A   Clear
11:54 AM 34.0 °F 29.8 °F 16.0 °F 48% 30.49 in 10.0 mi Variable 4.6 mph - N/A   Clear
12:54 PM 36.0 °F 31.1 °F 16.0 °F 44% 30.48 in 10.0 mi South 5.8 mph - N/A   Clear
1:54 PM 37.9 °F 33.5 °F 17.1 °F 43% 30.47 in 10.0 mi SSW 5.8 mph - N/A   Clear
2:54 PM 39.9 °F 34.5 °F 18.0 °F 41% 30.46 in 10.0 mi East 8.1 mph - N/A   Clear
3:54 PM 42.1 °F 37.1 °F 19.0 °F 40% 30.43 in 10.0 mi East 8.1 mph - N/A   Clear
4:54 PM 43.0 °F 38.8 °F 19.0 °F 38% 30.41 in 10.0 mi ESE 6.9 mph - N/A   Clear
5:54 PM 43.0 °F 38.8 °F 17.1 °F 35% 30.42 in 10.0 mi East 6.9 mph - N/A   Clear
6:54 PM 43.0 °F 37.7 °F 16.0 °F 34% 30.41 in 10.0 mi SSE 9.2 mph - N/A   Clear
7:54 PM 42.1 °F 39.2 °F 17.1 °F 37% 30.40 in 10.0 mi Variable 4.6 mph - N/A   Clear
8:54 PM 39.9 °F 36.7 °F 18.0 °F 41% 30.41 in 10.0 mi East 4.6 mph - N/A   Clear
9:54 PM 39.0 °F 36.8 °F 18.0 °F 43% 30.41 in 10.0 mi Variable 3.5 mph - N/A   Clear
10:54 PM 37.0 °F 32.4 °F 18.0 °F 46% 30.41 in 10.0 mi ENE 5.8 mph - N/A   Clear
11:54 PM 37.9 °F 34.4 °F 17.1 °F 43% 30.40 in 10.0 mi East 4.6 mph - N/A   Clear